DELLINGR (RBLE) (43021 NORAD) Tracking and Keplerian Element Data

This shows tracking and keplerian element data for the satellite.

Feedback or suggestion? Click here.




ElementValue
Catalog43021
NameDELLINGR (RBLE)
Epoch Orbit9897
Epoch Day229.02699676
Epoch Year2019
RAAN32.1113
Inclination51.6387
Eccentricity0.0001921
Argument of Perigee339.9259
Mean Anonmoly20.166
Mean Motion15.6383052
Decay Rate5.554E-05
L11 43021U 98067NJ 19229.02699676 .00005554 00000-0 63714-4 0 9992
L22 43021 51.6387 32.1113 0001921 339.9259 20.1660 15.63830520 98977

Live tracking and technical data element details for DELLINGR (RBLE) (NORAD 43021). DELLINGR (RBLE) can be tracked NOW for your location showing map with azimuth and elevation plus other details from your city location.

Track the satellite on the map from your city or location and see movement details for azimuth, elevation, latitude, longitude, range, height, and movement on the map or in text.







IsCatalogInMostPopularTable: catalog: 43021, numindb: 297
Update: records affected: 1



GetName: 43021 DELLINGR (RBLE)

Hit Count: updated at: Wed, 21 Aug 2019 12:02:36 GMT